Tracking 29892 objects as of 21-Nov-2024
HD Live streaming from Space Station
objects crossing your sky now

STARLINK-6057

Track STARLINK-6057 now!
10-day predictions
STARLINK-6057 is classified as:


NORAD ID: 56815
Int'l Code: 2023-078BA
Perigee: 577.1 km
Apogee: 581.2 km
Inclination: 70.0 °
Period: 96.1 minutes
Semi major axis: 6950 km
RCS: Unknown
Launch date: May 31, 2023
Source: United States (US)
Launch site: AIR FORCE WESTERN TEST RANGE (AFWTR)
Your satellite tracking list
Your tracking list is empty




NASA's NSSDC Master Catalog

Two Line Element Set (TLE):
1 56815U 23078BA  24325.78759647 -.00000446  00000-0 -29611-4 0  9993
2 56815  70.0011  99.4654 0002929 263.5609  96.5216 14.98350655 81695
Source of the keplerian elements: AFSPC